Location: Gälforsberget
(66.6500°N, 22.4167°E)
Time: 08:23:44
(UTC+00:00)

Cosmos 1975 Rocket - Pass Details

Date: 11 April 2026
Orbit: 597 x 626 km, 82.5° (Epoch: 9 May)

Event Time Altitude Azimuth Distance (km) Brightness Sun altitude
Rises 19:16:51 0° 337° (NNW) 2,927 7.9 -7.1°
Reaches altitude 10° 19:19:16 10° 347° (NNW) 2,018 6.6 -7.2°
Maximum altitude 19:23:22 34° 53° (NE) 1,036 4.1 -7.5°
Drops below altitude 10° 19:27:27 10° 120° (ESE) 2,007 5.1 -7.8°
Enters shadow 19:27:36 - 121° (ESE) 2,059 5.1 -7.8°
